20050120,000009,1384588,33.727186,-118.809446,15.393,33.184,0.497,1.642
20050120,000038,1384616,33.726313,-118.809095,15.389,33.173,0.497,1.639
20050120,000108,1384647,33.725753,-118.808308,15.401,33.163,0.518,1.592
20050120,000139,1384677,33.725478,-118.807251,15.396,33.167,0.507,1.590
20050120,000208,1384706,33.725148,-118.806276,15.423,33.146,0.507,1.622
20050120,000239,1384738,33.724795,-118.805188,15.448,33.144,0.518,1.658
20050120,000308,1384766,33.724466,-118.804163,15.443,33.161,0.549,1.728
20050120,000338,1384797,33.724133,-118.803088,15.432,33.162,0.559,1.743
20050120,000409,1384827,33.723790,-118.801986,15.532,33.096,0.623,1.849
20050120,000438,1384857,33.723461,-118.800941,15.576,33.107,0.666,1.957
20050120,000509,1384888,33.723098,-118.799856,15.545,33.143,0.666,1.985
20050120,000538,1384916,33.722753,-118.798825,15.555,33.127,0.699,2.056
20050120,000608,1384946,33.722406,-118.797761,15.565,33.122,0.699,2.052
20050120,000638,1384977,33.722048,-118.796700,15.524,33.151,0.732,2.122
20050120,000708,1385007,33.721701,-118.795638,15.488,33.148,0.754,2.166
20050120,000738,1385036,33.721341,-118.794528,15.458,33.144,0.732,2.110
20050120,000808,1385066,33.721011,-118.793506,15.440,33.139,0.766,2.182
20050120,000839,1385098,33.720658,-118.792395,15.444,33.121,0.789,2.230
20050120,000909,1385127,33.720315,-118.791335,15.494,33.079,0.835,2.327
20050120,000939,1385157,33.719981,-118.790260,15.534,33.072,0.906,2.480
20050120,001009,1385187,33.719638,-118.789201,15.523,33.089,0.941,2.553
20050120,001039,1385218,33.719306,-118.788135,15.526,33.083,0.977,2.628
20050120,001109,1385248,33.718968,-118.787068,15.513,33.090,0.977,2.624
20050120,001139,1385278,33.718628,-118.786010,15.467,33.106,0.965,2.595
20050120,001208,1385307,33.718298,-118.784988,15.422,33.111,0.977,2.614
20050120,001239,1385337,33.717953,-118.783886,15.400,33.101,0.953,2.557
20050120,001309,1385367,33.717606,-118.782805,15.390,33.094,0.953,2.552
20050120,001339,1385398,33.717278,-118.781785,15.388,33.090,0.906,2.442
20050120,001410,1385428,33.716935,-118.780723,15.410,33.068,0.977,2.590
20050120,001440,1385459,33.716598,-118.779658,15.427,33.065,1.014,2.657
20050120,001510,1385489,33.716250,-118.778603,15.442,33.054,1.051,2.711
20050120,001540,1385519,33.715920,-118.777525,15.403,33.078,1.014,2.649
20050120,001610,1385548,33.715578,-118.776470,15.394,33.074,1.002,2.552
20050120,001639,1385578,33.715226,-118.775393,15.422,33.043,1.088,2.783
20050120,001709,1385608,33.714866,-118.774291,15.436,33.036,1.113,2.793
20050120,001739,1385637,33.714531,-118.773240,15.433,33.040,1.126,2.727
20050120,001810,1385669,33.714178,-118.772166,15.413,33.050,1.113,2.806
20050120,001840,1385698,33.713815,-118.771063,15.405,33.046,1.113,2.626
20050120,001909,1385728,33.713473,-118.770011,15.402,33.043,1.126,2.740
20050120,001940,1385758,33.713105,-118.768908,15.386,33.046,1.126,2.639
20050120,002010,1385788,33.712770,-118.767885,15.381,33.042,1.126,2.670
20050120,002040,1385819,33.712411,-118.766823,15.399,33.024,1.151,2.563
20050120,002110,1385849,33.712043,-118.765711,15.493,32.975,1.202,2.602
20050120,002139,1385877,33.711700,-118.764693,15.543,32.981,1.215,2.520
20050120,002210,1385908,33.711338,-118.763610,15.642,32.985,1.253,2.651
20050120,002240,1385938,33.710983,-118.762518,15.533,33.057,1.266,2.442
20050120,002310,1385969,33.710620,-118.761450,15.511,33.038,1.306,2.688
20050120,002340,1385999,33.710265,-118.760386,15.618,32.988,1.293,2.488
20050120,002410,1386029,33.709913,-118.759321,15.578,33.031,1.306,2.434
20050120,002441,1386060,33.709548,-118.758253,15.504,33.051,1.279,2.515
20050120,002510,1386088,33.709193,-118.757188,15.486,33.044,1.293,2.400
20050120,002540,1386118,33.708838,-118.756126,15.460,33.036,1.293,2.385
20050120,002610,1386149,33.708478,-118.755053,15.434,33.037,1.358,2.546
20050120,002640,1386179,33.708118,-118.753980,15.420,33.022,1.266,2.391
20050120,002710,1386208,33.707755,-118.752905,15.411,33.023,1.279,2.421
20050120,002740,1386238,33.707386,-118.751850,15.393,33.023,1.266,2.354
20050120,002810,1386268,33.707025,-118.750773,15.386,33.019,1.266,2.386
20050120,002840,1386299,33.706661,-118.749695,15.386,33.015,1.202,2.353
20050120,002911,1386329,33.706300,-118.748640,15.422,32.995,1.189,2.333
20050120,002941,1386359,33.705923,-118.747520,15.469,32.991,1.176,2.313
20050120,003010,1386388,33.705571,-118.746503,15.463,33.017,1.126,2.341
20050120,003041,1386420,33.705196,-118.745391,15.431,33.040,1.151,2.335
20050120,003110,1386448,33.704846,-118.744351,15.413,33.039,1.138,2.433
20050120,003141,1386479,33.704473,-118.743225,15.420,33.028,1.189,2.418
20050120,003210,1386509,33.704108,-118.742161,15.430,33.019,1.176,2.525
20050120,003240,1386539,33.703753,-118.741105,15.424,33.029,1.189,2.482
20050120,003311,1386570,33.703385,-118.739991,15.404,33.038,1.358,2.926
20050120,003341,1386600,33.703020,-118.738908,15.385,33.036,1.385,3.048
20050120,003410,1386628,33.702658,-118.737828,15.386,33.027,1.439,3.117
20050120,003440,1386659,33.702315,-118.736771,15.404,33.018,1.479,3.279
20050120,003511,1386689,33.701935,-118.735671,15.448,32.995,1.547,3.307
20050120,003541,1386720,33.701575,-118.734580,15.420,33.033,1.616,3.444
20050120,003611,1386750,33.701211,-118.733471,15.485,32.990,1.644,3.552
20050120,003641,1386780,33.700868,-118.732420,15.549,32.982,1.813,3.867
20050120,003710,1386809,33.700515,-118.731356,15.618,32.970,2.151,4.428
20050120,003741,1386839,33.700160,-118.730268,15.616,33.014,2.287,4.723
20050120,003811,1386869,33.699803,-118.729191,15.592,33.033,2.379,4.946
20050120,003841,1386900,33.699446,-118.728118,15.564,33.046,2.519,5.194
20050120,003912,1386930,33.699086,-118.726990,15.524,33.052,2.598,5.324
20050120,003941,1386959,33.698735,-118.725961,15.486,33.050,2.661,5.420
20050120,004012,1386991,33.698356,-118.724846,15.508,33.017,2.598,4.819
20050120,004041,1387019,33.697991,-118.723813,15.523,33.017,2.661,5.215
20050120,004112,1387050,33.697606,-118.722706,15.516,33.024,2.805,5.572
20050120,004142,1387080,33.697235,-118.721636,15.469,33.049,2.789,5.426
20050120,004211,1387110,33.696875,-118.720591,15.457,33.032,2.772,5.433
20050120,004241,1387139,33.696488,-118.719476,15.462,33.022,2.789,5.553
20050120,004311,1387169,33.696125,-118.718438,15.442,33.031,2.677,5.315
20050120,004342,1387201,33.695731,-118.717321,15.430,33.027,2.789,5.446
20050120,004412,1387230,33.695366,-118.716271,15.417,33.026,2.902,5.660
20050120,004442,1387260,33.694988,-118.715201,15.410,33.023,2.951,5.764
20050120,004512,1387290,33.694598,-118.714086,15.393,33.026,2.951,5.728
20050120,004541,1387319,33.694231,-118.713036,15.373,33.030,2.821,5.469
20050120,004612,1387351,33.693855,-118.711958,15.343,33.032,2.951,5.681
20050120,004641,1387379,33.693475,-118.710883,15.351,33.015,2.934,5.623
20050120,004711,1387410,33.693095,-118.709803,15.366,33.007,2.984,5.678
20050120,004741,1387440,33.692718,-118.708728,15.376,33.004,3.149,5.975
20050120,004812,1387471,33.692320,-118.707608,15.399,32.999,3.132,5.913
20050120,004842,1387501,33.691936,-118.706528,15.399,33.007,3.283,6.150
20050120,004912,1387531,33.691570,-118.705478,15.398,33.012,3.333,6.222
20050120,004942,1387560,33.691166,-118.704356,15.403,33.011,3.333,6.184
20050120,005011,1387590,33.690796,-118.703313,15.404,33.010,3.435,6.349
20050120,005042,1387620,33.690400,-118.702186,15.422,33.003,3.452,6.343
20050120,005112,1387651,33.690030,-118.701118,15.427,33.008,3.555,6.481
20050120,005142,1387681,33.689631,-118.700000,15.434,33.005,3.606,6.561
20050120,005211,1387709,33.689256,-118.698921,15.423,33.019,3.623,6.552
20050120,005242,1387740,33.688856,-118.697793,15.415,33.018,3.555,6.416
20050120,005312,1387770,33.688468,-118.696691,15.402,33.019,3.520,6.317
20050120,005341,1387800,33.688091,-118.695636,15.397,33.016,3.623,6.471
20050120,005412,1387831,33.687685,-118.694493,15.407,33.005,3.589,6.379
20050120,005442,1387861,33.687293,-118.693415,15.408,33.010,3.503,6.220
20050120,005512,1387890,33.686901,-118.692310,15.429,33.004,3.641,6.417
20050120,005542,1387920,33.686523,-118.691245,15.530,32.971,3.658,6.415
20050120,005612,1387950,33.686125,-118.690116,15.497,33.017,3.762,6.558
20050120,005641,1387979,33.685750,-118.689060,15.514,33.007,3.762,6.536
20050120,005712,1388011,33.685348,-118.687915,15.501,33.017,3.780,6.538
20050120,005742,1388041,33.684955,-118.686820,15.501,33.008,3.572,6.146
20050120,005812,1388070,33.684566,-118.685725,15.483,33.015,3.350,5.759
20050120,005842,1388100,33.684190,-118.684658,15.452,33.023,3.452,5.884
20050120,005912,1388130,33.683778,-118.683528,15.416,33.022,3.350,5.694
20050120,005941,1388159,33.683398,-118.682451,15.404,33.015,3.469,5.868
20050120,010012,1388191,33.682988,-118.681350,15.384,33.019,3.676,6.180
20050120,010042,1388220,33.682603,-118.680261,15.351,33.024,3.727,6.250
20050120,010112,1388250,33.682208,-118.679163,15.369,33.002,3.676,6.135
20050120,010142,1388280,33.681815,-118.678078,15.423,32.973,3.503,5.828
20050120,010211,1388309,33.681431,-118.677035,15.426,33.000,3.435,5.702
20050120,010242,1388341,33.681020,-118.675910,15.403,33.017,3.017,5.015
20050120,010311,1388369,33.680643,-118.674861,15.406,33.011,3.000,4.960
20050120,010342,1388400,33.680231,-118.673746,15.376,33.024,2.918,4.825
20050120,010412,1388430,33.679823,-118.672610,15.380,33.008,2.854,4.700
20050120,010442,1388460,33.679435,-118.671555,15.363,33.021,2.805,4.612
20050120,010513,1388491,33.679045,-118.670453,15.395,32.991,2.789,4.577
20050120,010542,1388521,33.678665,-118.669423,15.408,33.001,2.677,4.387
20050120,010613,1388551,33.678275,-118.668338,15.415,32.999,2.709,4.421
20050120,010643,1388582,33.677876,-118.667236,15.474,32.974,2.693,4.388
20050120,010712,1388610,33.677501,-118.666190,15.511,32.984,2.645,4.303
20050120,010742,1388640,33.677116,-118.665116,15.485,33.017,2.488,4.056
20050120,010813,1388671,33.676715,-118.664018,15.432,33.024,2.410,3.928
20050120,010842,1388701,33.676345,-118.662973,15.398,33.013,2.425,3.943
20050120,010913,1388732,33.675951,-118.661865,15.390,32.997,2.364,3.843
20050120,010943,1388762,33.675566,-118.660785,15.422,32.970,2.441,3.952
20050120,011012,1388790,33.675195,-118.659720,15.537,32.927,2.364,3.829
20050120,011043,1388821,33.674806,-118.658635,15.456,33.017,2.061,3.374
20050120,011112,1388851,33.674441,-118.657606,15.425,32.990,1.842,3.045
20050120,011143,1388881,33.674056,-118.656501,15.467,32.953,1.842,3.039
20050120,011212,1388910,33.673695,-118.655463,15.462,32.962,1.799,2.970
20050120,011243,1388942,33.673318,-118.654398,15.445,32.971,1.871,3.070
20050120,011313,1388971,33.672930,-118.653286,15.442,32.963,1.799,2.962
20050120,011342,1389001,33.672571,-118.652260,15.444,32.960,1.757,2.898
20050120,011413,1389031,33.672181,-118.651148,15.430,32.966,1.813,2.978
20050120,011443,1389062,33.671806,-118.650071,15.419,32.966,1.714,2.832
20050120,011512,1389090,33.671433,-118.649003,15.434,32.951,1.686,2.790
20050120,011542,1389120,33.671056,-118.647925,15.441,32.950,1.686,2.788
20050120,011613,1389151,33.670680,-118.646846,15.428,32.963,1.644,2.727
20050120,011643,1389181,33.670303,-118.645771,15.508,32.896,1.728,2.848
20050120,011713,1389211,33.669926,-118.644711,15.880,32.731,1.973,3.203
20050120,011742,1389240,33.669563,-118.643668,16.105,32.763,1.944,3.158
20050120,011813,1389272,33.669171,-118.642555,16.091,32.919,1.828,2.989
20050120,011843,1389302,33.668785,-118.641451,15.960,32.997,1.828,2.988
20050120,011913,1389331,33.668408,-118.640410,15.761,33.041,1.630,2.700
20050120,011943,1389361,33.668020,-118.639341,15.650,33.022,1.561,2.599
20050120,012014,1389392,33.667616,-118.638236,15.531,33.021,1.630,2.698
20050120,012043,1389422,33.667240,-118.637196,15.511,32.967,1.506,2.519
20050120,012113,1389452,33.666850,-118.636136,15.501,32.947,1.561,2.597
20050120,012143,1389481,33.666458,-118.635053,15.489,32.941,1.534,2.557
20050120,012214,1389513,33.666053,-118.633950,15.485,32.938,1.574,2.615
20050120,012243,1389541,33.665673,-118.632911,15.467,32.940,1.602,2.655
20050120,012313,1389572,33.665283,-118.631841,15.464,32.931,1.561,2.594
20050120,012343,1389602,33.664875,-118.630731,15.443,32.934,1.547,2.575
20050120,012413,1389632,33.664496,-118.629683,15.423,32.933,1.561,2.593
20050120,012444,1389663,33.664093,-118.628581,15.420,32.923,1.534,2.554
20050120,012514,1389693,33.663713,-118.627533,15.422,32.919,1.534,2.553
20050120,012544,1389723,33.663305,-118.626421,15.418,32.919,1.520,2.533
20050120,012613,1389752,33.662925,-118.625380,15.418,32.915,1.561,2.592
20050120,012644,1389782,33.662520,-118.624261,15.418,32.914,1.479,2.473
20050120,012714,1389812,33.662135,-118.623221,15.398,32.924,1.506,2.512
20050120,012744,1389843,33.661725,-118.622110,15.386,32.923,1.547,2.572
20050120,012814,1389873,33.661336,-118.621063,15.378,32.920,1.492,2.492
20050120,012844,1389902,33.660925,-118.619948,15.384,32.910,1.452,2.433
20050120,012914,1389932,33.660523,-118.618873,15.387,32.911,1.465,2.452
20050120,012944,1389962,33.660121,-118.617786,15.379,32.916,1.452,2.432
20050120,013015,1389993,33.659708,-118.616668,15.370,32.916,1.479,2.471
20050120,013044,1390023,33.659320,-118.615631,15.378,32.909,1.452,2.432
20050120,013115,1390053,33.658903,-118.614506,15.389,32.904,1.452,2.432
20050120,013144,1390082,33.658498,-118.613421,15.394,32.907,1.452,2.432
20050120,013215,1390114,33.658093,-118.612335,15.393,32.910,1.398,2.355
20050120,013245,1390143,33.657691,-118.611258,15.424,32.890,1.425,2.394
20050120,013315,1390173,33.657288,-118.610175,15.456,32.891,1.398,2.354
20050120,013345,1390203,33.656881,-118.609096,15.486,32.882,1.345,2.277
20050120,013415,1390234,33.656476,-118.608008,15.484,32.907,1.358,2.296
20050120,013445,1390264,33.656070,-118.606935,15.463,32.919,1.385,2.335
20050120,013514,1390292,33.655675,-118.605870,15.457,32.914,1.358,2.296
20050120,013545,1390323,33.655253,-118.604765,15.469,32.904,1.319,2.240
20050120,013615,1390353,33.654845,-118.603671,15.465,32.911,1.266,2.164
20050120,013644,1390383,33.654436,-118.602590,15.455,32.911,1.306,2.221
20050120,013715,1390414,33.654031,-118.601506,15.453,32.913,1.371,2.315
20050120,013745,1390444,33.653625,-118.600421,15.453,32.911,1.385,2.334
20050120,013815,1390474,33.653218,-118.599346,15.456,32.906,1.371,2.315
20050120,013845,1390503,33.652811,-118.598245,15.443,32.911,1.358,2.296
20050120,013916,1390535,33.652388,-118.597140,15.428,32.916,1.266,2.164
20050120,013945,1390563,33.651995,-118.596080,15.413,32.914,1.253,2.145
20050120,014016,1390594,33.651570,-118.594966,15.410,32.905,1.279,2.182
20050120,014045,1390624,33.651175,-118.593911,15.413,32.901,1.279,2.182
20050120,014115,1390653,33.650761,-118.592821,15.409,32.900,1.293,2.201
20050120,014145,1390683,33.650356,-118.591738,15.401,32.896,1.319,2.239
20050120,014215,1390713,33.649948,-118.590651,15.416,32.888,1.266,2.164
20050120,014245,1390744,33.649535,-118.589561,15.422,32.891,1.266,2.164
20050120,014315,1390774,33.649123,-118.588466,15.397,32.909,1.266,2.163
20050120,014345,1390804,33.648691,-118.587396,15.383,32.907,1.279,2.182
20050120,014416,1390835,33.648256,-118.586265,15.386,32.895,1.371,2.315
20050120,014445,1390863,33.647836,-118.585226,15.377,32.898,1.358,2.296
20050120,014516,1390894,33.647408,-118.584135,15.353,32.908,1.332,2.258
20050120,014546,1390924,33.646955,-118.583013,15.336,32.905,1.345,2.276
20050120,014616,1390954,33.646520,-118.581918,15.331,32.900,1.412,2.373
20050120,014645,1390983,33.646098,-118.580870,15.334,32.894,1.465,2.450
20050120,014716,1391015,33.645661,-118.579781,15.319,32.903,1.506,2.509
20050120,014746,1391045,33.645205,-118.578656,15.324,32.886,1.506,2.509
20050120,014816,1391074,33.644766,-118.577571,15.310,32.897,1.506,2.509
20050120,014846,1391104,33.644318,-118.576481,15.306,32.892,1.520,2.529
20050120,014916,1391134,33.643881,-118.575400,15.300,32.890,1.492,2.489
20050120,014946,1391165,33.643433,-118.574328,15.279,32.901,1.492,2.489
20050120,015016,1391195,33.642990,-118.573241,15.281,32.890,1.492,2.489
20050120,015046,1391225,33.642548,-118.572163,15.272,32.895,1.534,2.549
20050120,015116,1391254,33.642103,-118.571080,15.270,32.890,1.534,2.548
20050120,015146,1391284,33.641651,-118.570011,15.272,32.887,1.534,2.548
20050120,015216,1391314,33.641201,-118.568916,15.275,32.888,1.479,2.469
20050120,015246,1391345,33.640761,-118.567846,15.281,32.885,1.492,2.489
20050120,015317,1391375,33.640298,-118.566721,15.275,32.892,1.506,2.509
20050120,015346,1391404,33.639863,-118.565680,15.260,32.898,1.479,2.469
20050120,015417,1391436,33.639401,-118.564558,15.250,32.898,1.520,2.529
20050120,015446,1391464,33.638965,-118.563506,15.242,32.897,1.534,2.548
20050120,015516,1391495,33.638515,-118.562423,15.250,32.886,1.520,2.529
20050120,015546,1391525,33.638063,-118.561330,15.260,32.886,1.452,2.430
20050120,015616,1391555,33.637606,-118.560241,15.260,32.889,1.439,2.412
20050120,015646,1391584,33.637136,-118.559116,15.253,32.896,1.425,2.392
20050120,015716,1391614,33.636701,-118.558060,15.260,32.887,1.412,2.373
20050120,015747,1391646,33.636231,-118.556923,15.274,32.885,1.452,2.430
20050120,015816,1391675,33.635775,-118.555828,15.256,32.901,1.385,2.334
20050120,015847,1391705,33.635320,-118.554740,15.242,32.900,1.398,2.353
20050120,015917,1391735,33.634871,-118.553635,15.242,32.893,1.385,2.334
20050120,015947,1391766,33.634418,-118.552545,15.255,32.884,1.371,2.315
20050120,020017,1391796,33.633960,-118.551438,15.262,32.887,1.332,2.258
20050120,020047,1391825,33.633503,-118.550351,15.272,32.884,1.398,2.353
20050120,020117,1391855,33.633045,-118.549255,15.268,32.889,1.371,2.315
20050120,020147,1391885,33.632588,-118.548165,15.266,32.891,1.345,2.276
20050120,020217,1391916,33.632101,-118.547086,15.265,32.890,1.398,2.353
20050120,020247,1391946,33.631610,-118.546015,15.267,32.889,1.398,2.353
20050120,020317,1391976,33.631111,-118.544946,15.265,32.892,1.358,2.296
20050120,020347,1392005,33.630616,-118.543858,15.272,32.886,1.371,2.315
20050120,020417,1392035,33.630113,-118.542781,15.276,32.890,1.319,2.239
20050120,020447,1392065,33.629623,-118.541705,15.283,32.886,1.319,2.239
20050120,020517,1392096,33.629108,-118.540626,15.275,32.893,1.202,2.071
20050120,020547,1392126,33.628621,-118.539545,15.274,32.893,1.151,1.997
20050120,020617,1392155,33.628116,-118.538455,15.273,32.891,1.151,1.997
20050120,020647,1392185,33.627616,-118.537373,15.285,32.884,1.138,1.978
20050120,020717,1392215,33.627116,-118.536280,15.309,32.874,1.113,1.943
20050120,020748,1392246,33.626600,-118.535170,15.314,32.882,1.176,2.034
20050120,020818,1392276,33.626105,-118.534066,15.311,32.897,1.176,2.034
20050120,020847,1392306,33.625611,-118.533021,15.294,32.904,1.163,2.015
20050120,020918,1392337,33.625091,-118.531906,15.301,32.894,1.215,2.089
20050120,020947,1392365,33.624596,-118.530848,15.320,32.886,1.163,2.015
20050120,021017,1392395,33.624098,-118.529755,15.327,32.892,1.163,2.015
20050120,021047,1392426,33.623585,-118.528666,15.346,32.876,1.176,2.034
20050120,021118,1392456,33.623070,-118.527538,15.299,32.922,1.189,2.052
20050120,021148,1392486,33.622563,-118.526448,15.307,32.896,1.126,1.961
20050120,021218,1392517,33.622066,-118.525353,15.307,32.900,1.138,1.978
20050120,021248,1392547,33.621558,-118.524271,15.308,32.897,1.138,1.978
20050120,021318,1392576,33.621061,-118.523171,15.329,32.888,1.138,1.978
20050120,021348,1392606,33.620553,-118.522075,15.366,32.873,1.138,1.978
20050120,021418,1392636,33.620055,-118.520971,15.371,32.895,1.101,1.924
20050120,021448,1392667,33.619545,-118.519888,15.332,32.914,1.126,1.961
20050120,021518,1392697,33.619026,-118.518760,15.333,32.904,1.113,1.943
20050120,021548,1392727,33.618526,-118.517708,15.314,32.913,1.113,1.943
20050120,021618,1392756,33.618030,-118.516603,15.314,32.903,1.126,1.961
20050120,021648,1392786,33.617511,-118.515521,15.317,32.900,1.113,1.943
20050120,021718,1392816,33.617003,-118.514421,15.326,32.898,1.138,1.978
20050120,021749,1392847,33.616496,-118.513331,15.324,32.905,1.113,1.943
20050120,021819,1392877,33.615980,-118.512190,15.319,32.904,1.126,1.961
20050120,021848,1392907,33.615480,-118.511131,15.321,32.903,1.138,1.978
20050120,021918,1392936,33.614995,-118.510033,15.324,32.905,1.126,1.961
20050120,021948,1392966,33.614476,-118.508950,15.321,32.908,1.113,1.943
20050120,022018,1392996,33.613988,-118.507836,15.323,32.904,1.138,1.978
20050120,022048,1393027,33.613461,-118.506718,15.378,32.879,1.138,1.978
20050120,022118,1393057,33.612988,-118.505656,15.376,32.907,1.113,1.943
20050120,022148,1393086,33.612476,-118.504561,15.354,32.921,1.113,1.943
20050120,022218,1393116,33.611986,-118.503468,15.374,32.906,1.113,1.943
20050120,022248,1393146,33.611466,-118.502381,15.374,32.911,1.113,1.943
20050120,022319,1393177,33.610958,-118.501288,15.396,32.903,1.088,1.906
20050120,022349,1393207,33.610440,-118.500153,15.388,32.920,1.063,1.870
20050120,022419,1393237,33.609928,-118.499058,15.410,32.910,1.002,1.781
20050120,022449,1393268,33.609421,-118.497960,15.400,32.925,1.038,1.834
20050120,022519,1393298,33.608918,-118.496861,15.409,32.923,1.038,1.834
20050120,022549,1393327,33.608405,-118.495756,15.434,32.911,0.990,1.764
20050120,022619,1393357,33.607905,-118.494671,15.471,32.909,0.977,1.746
20050120,022649,1393387,33.607400,-118.493573,15.469,32.933,0.965,1.728
20050120,022718,1393416,33.606911,-118.492516,15.461,32.936,0.965,1.728
20050120,022749,1393448,33.606388,-118.491386,15.489,32.921,0.990,1.764
20050120,022819,1393478,33.605881,-118.490280,15.473,32.947,1.038,1.834
20050120,022849,1393507,33.605375,-118.489181,15.436,32.957,1.101,1.925
20050120,022919,1393537,33.604866,-118.488083,15.430,32.943,1.088,1.906
20050120,022949,1393567,33.604356,-118.486978,15.438,32.933,1.126,1.961
20050120,023019,1393598,33.603846,-118.485868,15.549,32.862,1.163,2.015
20050120,023049,1393628,33.603338,-118.484763,15.665,32.842,1.113,1.943
20050120,023119,1393658,33.602825,-118.483661,15.676,32.915,1.126,1.961
20050120,023149,1393687,33.602325,-118.482538,15.570,32.980,1.138,1.979
20050120,023219,1393717,33.601803,-118.481443,15.506,32.972,1.176,2.034
20050120,023249,1393747,33.601295,-118.480326,15.487,32.952,1.138,1.979
20050120,023319,1393778,33.600766,-118.479233,15.479,32.942,1.126,1.961
20050120,023349,1393808,33.600261,-118.478113,15.468,32.939,1.202,2.071
20050120,023419,1393837,33.599731,-118.477010,15.454,32.944,1.113,1.943
20050120,023449,1393867,33.599226,-118.475896,15.468,32.923,1.151,1.997
20050120,023520,1393899,33.598695,-118.474786,15.457,32.939,1.113,1.943
20050120,023550,1393928,33.598158,-118.473641,15.468,32.925,1.138,1.979
20050120,023619,1393958,33.597646,-118.472566,15.460,32.939,1.126,1.961
20050120,023649,1393988,33.597135,-118.471446,15.474,32.923,1.138,1.979
20050120,023720,1394019,33.596590,-118.470313,15.495,32.921,1.113,1.943
20050120,023750,1394049,33.596073,-118.469200,15.672,32.823,1.126,1.961
20050120,023819,1394077,33.595566,-118.468140,15.793,32.831,1.189,2.052
20050120,023850,1394108,33.595041,-118.467016,15.816,32.875,1.253,2.145
20050120,023920,1394138,33.594506,-118.465868,15.931,32.858,1.412,2.373
20050120,023949,1394167,33.594018,-118.464780,15.935,32.903,1.358,2.296
20050120,024019,1394197,33.593556,-118.463648,15.952,32.913,1.306,2.220
20050120,024050,1394229,33.593066,-118.462476,15.853,32.959,1.202,2.071
20050120,024120,1394258,33.592598,-118.461331,15.821,32.943,1.253,2.145
20050120,024149,1394288,33.592121,-118.460195,15.822,32.911,1.293,2.201
20050120,024219,1394318,33.591663,-118.459088,15.877,32.887,1.371,2.315
20050120,024250,1394349,33.591186,-118.457946,15.894,32.895,1.358,2.296
20050120,024320,1394379,33.590701,-118.456765,15.930,32.883,1.385,2.334
20050120,024349,1394407,33.590241,-118.455656,15.939,32.898,1.385,2.334